Date,TemperatureHighF,TemperatureAvgF,TemperatureLowF,DewpointHighF,DewpointAvgF,DewpointLowF,HumidityHigh,HumidityAvg,HumidityLow,PressureMaxIn,PressureMinIn,WindSpeedMaxMPH,WindSpeedAvgMPH,GustSpeedMaxMPH,PrecipitationSumIn
2013-1-1,30,22,16,16,12,7,72,65,54,30.22,30.06,11,2,11,0.00
2013-1-2,16,12,9,7,5,3,78,72,67,30.29,30.21,4,1,4,0.00
2013-1-3,16,11,6,8,4,0,78,73,68,30.24,30.08,2,0,2,0.00
2013-1-4,32,18,8,22,10,2,79,71,59,30.13,30.07,10,1,10,0.00
2013-1-5,32,22,16,22,14,10,78,72,62,30.18,30.00,8,1,8,0.00
2013-1-6,36,29,21,24,20,14,76,68,62,30.00,29.84,7,1,7,0.00
2013-1-7,40,33,28,27,22,18,69,64,56,29.90,29.67,14,1,14,0.00
2013-1-8,40,36,31,27,22,18,69,56,45,29.93,29.68,16,4,16,0.00
2013-1-9,46,42,35,27,25,23,66,51,45,29.86,29.56,12,3,12,0.07
2013-1-10,42,24,9,28,16,3,85,74,48,29.76,29.53,13,4,13,0.01
2013-1-11,9,7,4,2,0,-2,78,73,67,30.00,29.75,14,3,14,0.00
2013-1-12,9,4,-1,2,-3,-8,77,73,69,30.04,29.93,2,0,2,0.00
2013-1-13,10,5,1,2,-2,-5,77,74,69,30.08,30.02,5,0,5,0.00
2013-1-14,19,9,0,11,2,-6,78,73,64,30.07,29.96,14,1,14,0.00
2013-1-15,33,28,17,22,18,11,76,66,55,30.19,30.04,19,6,19,0.00
2013-1-16,42,37,31,23,19,15,56,48,41,30.25,30.14,23,8,23,0.00
2013-1-17,39,27,20,19,15,10,69,61,43,30.28,30.07,8,1,10,0.00
2013-1-18,49,37,26,22,18,13,67,47,27,30.09,29.93,16,3,16,0.01
2013-1-19,44,38,34,22,17,13,48,42,31,30.16,30.04,14,2,14,0.00
2013-1-20,40,26,23,17,15,13,71,64,37,30.27,30.12,8,1,8,0.00
2013-1-21,40,32,19,22,17,13,77,55,42,30.12,29.97,8,2,8,0.00
2013-1-22,34,29,22,17,14,9,59,51,45,30.08,30.00,4,1,4,0.00
2013-1-23,36,33,26,20,19,14,60,56,52,30.01,29.82,4,1,4,0.00
2013-1-24,43,38,34,30,24,20,70,57,48,30.03,29.82,14,3,14,0.00
2013-1-25,42,36,31,31,25,20,73,63,59,30.03,29.86,4,1,4,0.00
2013-1-26,45,35,31,33,27,25,80,73,61,29.85,29.65,12,2,12,0.00
2013-1-27,34,30,26,25,19,12,71,62,46,29.79,29.73,9,2,9,0.00
2013-1-28,33,27,25,16,14,11,61,56,43,29.77,29.63,10,1,10,0.00
2013-1-29,27,16,9,17,6,-4,72,63,55,30.01,29.64,12,2,12,0.00
2013-1-30,38,28,11,27,19,2,87,68,58,29.93,29.81,21,5,21,0.00
2013-1-31,42,39,36,29,26,25,67,61,56,30.01,29.92,21,6,21,0.01
2013-2-1,40,37,34,29,26,20,81,67,46,30.16,29.93,16,5,16,0.01
2013-2-2,42,37,32,23,21,19,60,53,45,30.25,30.11,13,4,13,0.00
2013-2-3,44,35,26,23,20,16,68,55,38,30.11,29.90,12,2,12,0.00
2013-2-4,44,39,37,27,23,20,59,52,47,29.90,29.84,15,3,15,0.00
2013-2-5,45,38,34,31,25,22,67,60,54,29.90,29.69,9,1,9,0.00
2013-2-6,40,35,31,26,20,16,69,55,43,29.98,29.74,17,3,17,0.00
2013-2-7,39,31,24,22,18,14,70,59,46,29.96,29.80,4,1,4,0.00
2013-2-8,39,30,23,24,18,14,71,62,49,29.87,29.81,8,1,8,0.00
2013-2-9,34,28,23,24,18,14,85,67,47,29.92,29.74,13,2,13,0.00
2013-2-10,29,24,15,21,14,8,79,67,55,30.04,29.93,10,2,10,0.00
2013-2-11,32,20,10,20,12,4,79,71,60,30.00,29.91,11,2,11,0.00
2013-2-12,38,35,29,25,22,19,66,60,54,30.00,29.93,21,6,21,0.04
2013-2-13,42,38,34,25,23,20,60,53,42,30.04,29.85,22,7,22,0.01
2013-2-14,34,28,21,23,19,15,81,71,60,30.21,30.04,17,3,17,0.00
2013-2-15,41,36,31,26,23,19,66,60,52,30.26,30.12,16,5,16,0.01
2013-2-16,44,36,27,28,25,19,76,65,51,30.12,29.67,16,2,16,0.01
2013-2-17,36,32,27,27,22,18,81,65,55,29.93,29.68,20,5,20,0.01
2013-2-18,34,27,21,24,18,15,83,70,54,29.97,29.77,6,1,6,0.00
2013-2-19,36,29,25,22,17,15,69,61,50,29.77,29.61,5,1,5,0.03
2013-2-20,36,28,20,26,19,12,79,69,55,29.80,29.68,7,1,7,0.03
2013-2-21,32,26,19,17,12,9,67,55,40,29.86,29.79,19,3,19,0.00
2013-2-22,41,34,26,21,17,14,62,51,37,29.83,29.56,13,3,13,0.00
2013-2-23,36,31,27,26,16,10,78,53,38,29.97,29.52,22,5,22,0.00
2013-2-24,36,29,23,14,13,11,61,52,39,30.04,29.95,19,4,19,0.00
2013-2-25,39,30,23,26,16,12,67,55,44,29.95,29.75,17,2,17,0.01
2013-2-26,36,30,25,18,15,11,62,52,43,30.09,29.85,15,5,15,0.00
2013-2-27,43,30,22,17,14,10,64,52,35,30.13,30.05,10,1,10,0.00
2013-2-28,43,35,28,25,20,14,65,54,44,30.18,30.08,16,2,16,0.00
2013-3-1,53,45,35,33,30,25,70,57,44,30.19,30.15,13,2,13,0.00
2013-3-2,54,43,34,32,28,25,71,56,37,30.19,29.80,12,2,12,0.00
2013-3-3,42,34,22,31,20,6,82,57,30,29.97,29.64,34,6,34,0.01
2013-3-4,27,21,15,14,10,4,79,63,47,30.16,29.96,12,3,12,0.00
2013-3-5,37,23,10,18,11,3,74,60,44,30.08,29.87,4,1,4,0.01
2013-3-6,40,31,24,29,21,15,84,68,50,29.87,29.62,5,1,5,0.02
2013-3-7,44,35,28,28,20,15,85,58,36,29.93,29.71,9,2,9,0.02
2013-3-8,46,33,22,21,15,11,68,49,28,29.92,29.78,7,1,7,0.00
2013-3-9,44,36,30,21,18,12,59,48,37,30.13,29.88,13,4,13,0.00
2013-3-10,48,39,32,27,19,14,67,46,28,30.17,29.98,20,5,20,0.00
2013-3-11,38,34,26,26,21,17,72,59,46,30.15,29.97,19,4,19,0.00
2013-3-12,49,34,21,29,21,14,77,62,41,30.15,29.94,7,1,7,0.00
2013-3-13,59,49,41,30,28,24,55,44,28,30.07,29.99,16,2,16,0.00
2013-3-14,60,46,36,33,27,23,62,49,34,30.09,29.88,4,1,4,0.00
2013-3-15,54,48,42,31,26,22,56,42,31,29.97,29.89,22,4,22,0.00
2013-3-16,54,44,37,28,23,19,58,45,29,29.96,29.58,12,2,12,0.00
2013-3-17,39,31,19,28,17,10,82,56,40,29.84,29.50,30,6,30,0.00
2013-3-18,37,26,15,21,13,6,77,61,29,29.88,29.78,21,4,21,0.00
2013-3-19,43,32,25,18,12,0,71,46,18,30.11,29.88,14,4,14,0.00
2013-3-20,59,41,26,32,20,7,73,45,29,29.94,29.49,20,3,20,0.00
2013-3-21,37,33,26,23,14,6,63,46,29,29.83,29.60,24,6,24,0.00
2013-3-22,29,25,19,15,11,9,66,56,47,30.06,29.81,10,3,10,0.00
2013-3-23,31,21,12,16,8,3,70,60,33,30.12,30.06,10,1,10,0.00
2013-3-24,36,24,12,14,7,3,74,53,26,30.15,30.05,8,1,8,0.00
2013-3-25,46,30,16,13,8,3,58,41,20,30.06,29.89,12,2,12,0.00
2013-3-26,52,40,31,21,15,11,48,38,24,29.91,29.84,9,2,9,0.00
2013-3-27,57,41,28,29,21,15,62,45,29,29.95,29.87,8,1,8,0.00
2013-3-28,59,46,33,34,30,24,74,55,33,30.00,29.92,7,1,7,0.00
2013-3-29,55,46,39,35,31,28,70,55,38,30.08,29.99,14,3,14,0.00
2013-3-30,57,47,39,30,27,22,65,47,29,30.14,30.01,13,3,13,0.00
2013-3-31,55,47,39,29,25,21,55,43,32,30.05,29.97,9,2,9,0.00
2013-4-1,59,44,30,27,23,19,66,46,25,30.01,29.92,6,1,6,0.00
2013-4-2,66,48,32,33,26,19,63,44,28,29.99,29.87,16,2,16,0.00
2013-4-3,59,50,45,33,30,26,55,47,33,30.02,29.93,13,2,13,0.00
2013-4-4,64,50,39,39,31,26,64,50,30,29.98,29.73,11,1,11,0.00
2013-4-5,60,50,44,39,31,24,66,50,28,29.85,29.71,22,5,22,0.02
2013-4-6,54,46,39,38,30,24,73,54,44,29.85,29.76,22,3,22,0.03
2013-4-7,50,39,28,39,30,22,86,69,58,29.80,29.54,12,2,12,0.21
2013-4-8,28,23,18,22,14,10,80,68,56,30.15,29.77,13,4,13,0.00
2013-4-9,38,25,13,19,13,7,76,61,38,30.22,30.07,6,1,6,0.01
2013-4-10,56,41,28,37,26,17,68,58,41,30.08,29.72,16,2,16,0.04
2013-4-11,51,44,36,32,24,17,65,47,28,29.92,29.75,18,7,18,0.00
2013-4-12,51,41,31,28,23,20,68,50,31,29.98,29.56,11,2,11,0.00
2013-4-13,47,39,30,32,21,6,74,49,22,29.65,29.42,28,6,28,0.01
2013-4-14,36,29,21,25,19,13,84,68,57,29.88,29.64,10,3,10,0.12
2013-4-15,30,24,19,16,13,11,75,64,45,30.03,29.85,14,3,14,0.01
2013-4-16,31,24,19,17,14,10,76,64,45,30.16,30.00,13,4,13,0.00
2013-4-17,38,28,20,16,14,9,75,57,35,30.17,30.11,9,2,9,0.01
2013-4-18,50,35,19,23,17,9,69,49,33,30.11,30.04,20,4,20,0.01
2013-4-19,53,43,36,35,28,20,63,53,45,30.04,29.77,19,3,19,0.00
2013-4-20,55,46,41,32,28,24,68,50,33,29.94,29.81,22,7,22,0.00
2013-4-21,42,28,22,28,21,16,84,75,49,30.14,29.93,12,3,12,0.06
2013-4-22,37,26,21,18,15,6,78,63,28,30.26,30.13,9,2,9,0.03
2013-4-23,47,32,20,23,17,11,72,55,33,30.19,30.03,12,2,12,0.14
2013-4-24,57,43,28,26,21,17,68,45,24,30.15,29.88,17,4,17,0.00
2013-4-25,63,52,41,26,22,17,44,32,21,29.98,29.80,23,5,23,0.00
2013-4-26,68,56,44,30,27,24,50,34,22,30.08,29.97,20,5,20,0.00
2013-4-27,69,55,46,31,27,21,46,35,18,30.07,29.87,19,4,19,0.00
2013-4-28,62,53,43,37,29,22,62,40,27,29.97,29.79,19,5,19,0.00
2013-4-29,53,45,35,38,23,14,69,44,24,29.79,29.56,28,6,28,0.05
2013-4-30,38,33,27,26,18,12,69,54,39,30.14,29.75,14,3,16,0.00
2013-5-1,48,36,23,22,16,12,69,48,27,30.42,30.14,16,3,16,0.00
2013-5-2,65,46,28,22,16,9,59,34,12,30.44,30.16,14,2,14,0.00
2013-5-3,58,49,40,39,28,17,81,49,27,30.19,30.11,12,2,12,0.21
2013-5-4,54,45,40,40,36,34,81,71,52,30.20,30.12,7,2,7,0.04
2013-5-5,65,51,37,37,33,30,79,54,29,30.12,29.93,9,2,9,0.00
2013-5-6,72,62,41,38,31,27,68,34,19,29.97,29.81,5,2,5,0.00
2013-5-7,68,57,44,37,33,28,59,42,30,30.02,29.84,13,3,13,0.00
2013-5-8,74,60,44,38,33,22,57,39,15,30.08,29.99,6,1,6,0.00
2013-5-9,73,61,51,40,36,32,57,40,26,30.11,30.03,12,2,12,0.00
2013-5-10,67,58,46,37,33,29,62,41,28,30.32,30.07,13,3,13,0.00
2013-5-11,77,60,43,40,34,26,58,39,24,30.26,30.05,11,2,11,0.00
2013-5-12,87,69,53,45,39,33,54,35,16,30.08,29.92,15,2,15,0.00
2013-5-13,87,69,54,48,42,24,54,40,13,30.00,29.69,20,3,20,0.20
2013-5-14,70,57,46,38,28,20,55,36,16,29.99,29.87,16,4,16,0.00
2013-5-15,70,58,47,35,28,23,48,33,22,30.00,29.85,12,2,12,0.00
2013-5-16,66,55,45,42,37,31,72,53,37,29.90,29.80,11,2,11,0.06
2013-5-17,55,49,43,44,39,31,80,68,53,29.89,29.84,6,1,6,0.07
2013-5-18,60,51,46,48,43,40,84,73,53,29.96,29.88,12,2,12,0.21
2013-5-19,53,49,45,45,42,39,83,76,71,30.12,29.95,12,2,12,0.23
2013-5-20,63,52,46,48,43,39,86,73,46,30.16,30.04,8,2,10,0.34
2013-5-21,73,56,41,46,38,29,85,57,21,30.05,29.73,12,2,12,0.00
2013-5-22,61,54,44,47,39,33,81,57,45,29.82,29.71,13,2,13,0.30
2013-5-23,54,44,37,38,35,32,84,72,47,29.90,29.81,9,1,9,0.72
2013-5-24,66,50,39,38,33,25,83,56,25,29.94,29.82,16,2,16,0.03
2013-5-25,64,52,40,47,36,30,67,55,37,29.94,29.86,12,2,12,0.07
2013-5-26,69,52,41,44,37,31,77,59,39,29.94,29.82,19,2,19,0.21
2013-5-27,63,52,41,47,41,36,85,68,47,29.89,29.75,10,2,10,0.00
2013-5-28,59,52,47,46,43,40,82,70,57,29.76,29.72,8,1,8,0.28
2013-5-29,65,54,47,44,41,39,79,63,42,29.76,29.63,8,2,8,0.21
2013-5-30,57,50,46,41,36,32,76,57,40,29.94,29.72,19,8,19,0.00
2013-5-31,52,48,45,42,36,32,72,62,54,30.21,29.94,19,5,19,0.02
2013-6-1,67,53,37,44,36,32,85,57,31,30.21,29.97,8,2,8,0.00
2013-6-2,64,53,46,46,40,33,76,61,43,29.97,29.81,15,2,15,0.13
2013-6-3,57,48,43,43,40,37,83,74,49,30.07,29.83,18,4,18,0.62
2013-6-4,58,51,39,40,36,33,85,58,46,30.16,30.08,7,2,7,0.04
2013-6-5,74,56,38,45,38,31,81,54,26,30.13,29.95,12,2,12,0.00
2013-6-6,77,66,51,49,43,37,64,45,33,30.06,29.93,8,2,8,0.00
2013-6-7,80,67,55,51,45,40,65,47,28,29.94,29.77,20,4,20,0.00
2013-6-8,78,66,56,44,35,21,57,34,16,29.95,29.87,19,5,19,0.00
2013-6-9,82,68,56,43,33,21,49,30,11,29.95,29.75,19,4,19,0.00
2013-6-10,79,66,54,40,32,24,41,29,18,29.87,29.73,7,2,7,0.00
2013-6-11,66,59,52,51,44,37,80,58,37,30.00,29.77,9,2,9,0.41
2013-6-12,73,57,47,57,50,42,85,76,54,30.00,29.84,10,2,10,1.05
2013-6-13,57,52,48,45,42,36,76,67,58,30.00,29.91,18,3,18,0.06
2013-6-14,63,53,42,38,34,30,73,51,31,30.06,29.94,19,4,19,0.00
2013-6-15,76,60,42,39,33,30,66,41,20,30.06,29.92,8,2,8,0.00
2013-6-16,75,63,49,48,38,29,54,41,30,30.08,30.00,9,2,9,0.00
2013-6-17,78,65,53,54,45,40,65,50,29,30.08,29.89,6,1,6,0.02
2013-6-18,85,68,55,56,47,42,71,49,29,29.92,29.69,10,2,10,0.00
2013-6-19,72,58,47,53,47,39,80,65,49,29.82,29.62,15,3,15,0.18
2013-6-20,60,52,45,46,40,36,75,63,46,30.00,29.75,9,1,9,0.19
2013-6-21,65,53,42,50,40,34,78,61,39,30.01,29.96,6,1,6,0.15
2013-6-22,65,54,47,47,41,36,82,62,43,30.00,29.91,10,2,10,0.18
2013-6-23,74,60,43,46,41,36,79,54,32,29.95,29.74,6,2,7,0.00
2013-6-24,76,64,56,54,45,37,74,51,37,29.74,29.63,13,2,13,0.05
2013-6-25,73,62,52,51,46,42,79,58,35,29.89,29.73,10,2,10,0.02
2013-6-26,73,64,54,51,47,44,73,55,39,30.09,29.88,17,3,17,0.00
2013-6-27,86,70,54,53,47,43,69,47,25,30.19,30.08,14,3,14,0.00
2013-6-28,89,75,58,53,47,42,59,40,22,30.24,30.12,13,2,13,0.00
2013-6-29,86,73,62,60,53,48,65,49,34,30.17,30.05,16,1,16,0.00
2013-6-30,89,74,59,58,54,49,73,52,32,30.12,30.06,8,2,8,0.00
2013-7-1,92,78,66,60,55,44,66,47,22,30.19,30.09,7,2,7,0.00
2013-7-2,99,80,64,60,54,50,64,43,24,30.13,29.97,9,2,9,0.00
2013-7-3,92,82,72,56,50,41,51,35,21,30.03,29.90,16,4,16,0.00
2013-7-4,90,78,67,53,47,41,48,34,22,29.96,29.80,14,3,14,0.00
2013-7-5,81,72,61,52,43,35,58,36,28,29.87,29.78,12,2,12,0.00
2013-7-6,81,67,52,50,45,41,78,49,26,29.95,29.83,8,2,8,0.00
2013-7-7,86,68,57,54,48,44,69,50,25,29.96,29.82,7,2,7,0.00
2013-7-8,81,71,62,55,48,36,67,46,25,30.07,29.91,15,3,15,0.00
2013-7-9,86,70,54,47,39,26,61,36,13,30.15,30.04,13,3,13,0.00
2013-7-10,91,75,58,49,39,35,46,30,15,30.08,29.83,11,2,11,0.00
2013-7-11,89,75,60,49,41,35,60,32,16,29.93,29.79,19,3,19,0.06
2013-7-12,83,67,53,49,43,39,65,45,22,29.92,29.82,19,2,19,0.02
2013-7-13,78,65,58,43,40,30,52,41,18,30.12,29.90,10,2,10,0.00
2013-7-14,86,70,56,50,40,31,54,37,16,30.14,29.98,10,2,10,0.00
2013-7-15,92,74,59,49,38,29,54,29,12,30.11,29.88,15,3,15,0.00
2013-7-16,80,66,51,50,45,39,66,49,34,30.17,30.05,10,3,10,0.00
2013-7-17,83,67,58,68,56,47,81,69,45,30.13,29.98,8,2,8,0.94
2013-7-18,88,71,55,60,46,29,85,50,14,30.14,30.05,15,3,15,0.01
2013-7-19,87,74,60,49,36,25,53,29,11,30.10,29.98,17,3,17,0.00
2013-7-20,90,75,63,50,36,24,52,28,6,30.03,29.86,13,2,13,0.00
2013-7-21,90,78,66,35,30,24,30,19,8,29.92,29.83,10,3,14,0.00
2013-7-22,89,77,65,38,30,22,35,19,8,29.97,29.87,15,3,15,0.00
2013-7-23,90,76,61,43,36,30,41,25,13,30.10,29.97,9,2,9,0.00
2013-7-24,94,76,62,46,38,25,47,27,5,30.09,29.94,14,3,14,0.00
2013-7-25,88,74,60,52,48,44,62,42,23,30.16,30.03,8,2,8,0.00
2013-7-26,93,75,61,53,40,25,61,36,7,30.15,29.98,10,2,10,0.00
2013-7-27,89,77,65,43,30,20,38,20,10,30.02,29.84,18,3,18,0.00
2013-7-28,81,70,60,52,48,43,68,47,28,29.94,29.83,8,2,8,0.00
2013-7-29,74,63,54,49,46,44,75,57,39,30.04,29.88,11,2,11,0.18
2013-7-30,77,65,54,51,47,44,72,54,34,30.17,30.03,8,2,8,0.00
2013-7-31,87,70,56,51,43,34,67,42,16,30.19,30.02,8,2,8,0.00
2013-8-1,72,62,55,53,46,37,88,59,31,30.07,29.90,13,2,13,0.95
2013-8-2,72,61,49,53,47,44,87,65,39,30.07,29.90,12,1,12,0.04
2013-8-3,77,63,51,55,47,42,74,57,35,30.09,30.02,7,0,7,0.01
2013-8-4,82,68,53,51,43,37,72,46,21,30.08,29.97,10,1,10,0.00
2013-8-5,83,69,55,49,41,35,55,38,19,30.03,29.90,18,2,18,0.00
2013-8-6,82,69,56,51,45,38,67,45,22,30.03,29.97,10,0,10,0.00
2013-8-7,86,71,56,50,41,30,58,37,15,30.01,29.92,7,0,7,0.00
2013-8-8,81,69,58,51,47,42,64,46,28,30.08,29.98,9,0,9,0.00
2013-8-9,78,66,58,55,51,46,73,59,41,30.11,30.00,5,0,5,0.05
2013-8-10,80,66,54,56,48,36,76,56,24,30.07,29.99,10,0,10,0.00
2013-8-11,82,69,60,51,46,40,66,45,29,30.06,30.00,9,0,9,0.00
2013-8-12,82,69,56,51,44,39,58,42,25,30.08,30.01,8,0,8,0.00
2013-8-13,83,70,59,51,44,40,63,41,25,30.13,30.00,13,0,13,0.17
2013-8-14,85,68,53,56,44,30,74,48,17,30.11,29.98,7,0,7,0.00
2013-8-15,90,73,57,50,38,31,47,30,15,30.04,29.94,6,0,6,0.00
2013-8-16,92,75,60,46,36,25,43,27,8,30.00,29.91,15,1,15,0.00
2013-8-17,89,77,68,48,43,34,41,30,22,30.06,29.93,8,0,8,0.00
2013-8-18,88,77,65,48,43,38,45,31,18,30.04,29.95,12,2,12,0.00
2013-8-19,90,75,64,44,36,25,42,26,10,30.04,29.91,13,1,13,0.00
2013-8-20,88,74,63,43,38,31,39,28,18,30.02,29.91,12,1,12,0.00
2013-8-21,84,71,58,37,34,30,38,27,17,30.10,30.00,4,0,4,0.00
2013-8-22,83,69,59,49,39,31,43,34,28,30.08,29.91,8,0,8,0.00
2013-8-23,80,71,62,56,46,40,59,42,25,29.96,29.80,8,1,8,0.01
2013-8-24,82,70,58,52,46,42,63,45,26,29.98,29.85,10,1,10,0.01
2013-8-25,89,69,55,52,45,34,64,45,15,30.00,29.86,20,0,20,0.00
2013-8-26,82,69,58,55,46,41,60,45,29,30.03,29.90,8,0,8,0.15
2013-8-27,86,70,56,54,45,40,61,43,21,30.04,29.91,8,0,8,0.00
2013-8-28,78,68,59,56,47,39,63,49,35,30.04,29.94,8,0,8,0.07
2013-8-29,87,69,55,63,50,42,79,55,25,30.09,29.94,7,0,7,0.04
2013-8-30,84,71,59,52,44,39,63,42,21,30.07,29.97,14,2,14,0.00
2013-8-31,81,68,57,45,40,34,55,37,19,30.12,30.01,5,0,5,0.00
2013-9-1,88,70,55,46,37,32,49,32,17,30.06,29.91,7,0,7,0.00
2013-9-2,82,71,59,48,41,33,44,34,27,29.99,29.90,2,0,2,0.00
2013-9-3,86,72,61,52,44,37,56,37,25,30.12,29.99,10,0,10,0.00
2013-9-4,85,72,61,57,52,48,72,52,33,30.13,30.03,8,0,8,0.00
2013-9-5,85,69,61,58,52,46,71,54,34,30.07,29.98,16,1,16,0.09
2013-9-6,80,68,59,58,56,52,82,67,43,30.05,29.94,11,0,11,0.11
2013-9-7,76,65,60,60,56,54,81,74,53,30.09,29.96,10,0,10,0.04
2013-9-8,72,62,54,60,51,42,86,69,46,30.02,29.91,13,1,13,0.10
2013-9-9,74,60,54,49,44,42,65,56,39,30.03,29.93,10,2,10,0.00
2013-9-10,78,62,48,51,44,39,79,55,30,30.10,30.02,6,0,6,0.00
2013-9-11,79,67,56,48,44,40,58,43,31,30.21,30.08,8,0,8,0.00
2013-9-12,80,67,57,49,44,41,59,44,29,30.20,30.00,6,0,6,0.00
2013-9-13,82,69,57,51,45,42,60,43,28,30.00,29.82,6,0,6,0.00
2013-9-14,72,67,62,49,46,44,53,47,39,30.07,29.88,10,1,10,0.00
2013-9-15,80,65,54,50,46,40,63,50,33,30.07,29.89,9,0,9,0.00
2013-9-16,83,69,57,53,47,40,66,48,26,29.92,29.75,8,1,8,0.00
2013-9-17,66,56,51,51,45,39,86,67,41,29.84,29.66,6,0,6,0.19
2013-9-18,60,51,47,46,39,33,86,67,40,30.00,29.67,14,2,14,0.00
2013-9-19,62,53,46,38,35,32,63,51,34,30.10,30.00,12,1,12,0.00
2013-9-20,74,55,39,42,33,28,71,49,20,30.02,29.75,6,0,6,0.01
2013-9-21,78,62,47,42,33,28,48,36,19,29.76,29.58,9,0,9,0.00
2013-9-22,65,56,47,42,37,31,65,49,34,29.74,29.63,13,1,13,0.01
2013-9-23,61,47,44,36,33,29,68,60,29,29.91,29.72,8,1,8,0.00
2013-9-24,51,46,41,42,36,29,85,71,49,29.91,29.72,4,0,4,0.70
2013-9-25,48,42,38,42,37,34,87,83,77,29.77,29.66,9,0,9,0.30
2013-9-26,44,39,35,35,33,28,87,80,66,29.96,29.77,6,0,8,0.29
2013-9-27,52,41,30,33,30,26,86,67,45,29.96,29.87,14,1,14,0.00
2013-9-28,59,51,42,40,36,31,69,56,46,29.87,29.72,8,1,8,0.00
2013-9-29,59,51,44,40,34,29,74,52,42,29.73,29.55,19,1,19,0.04
2013-9-30,54,48,40,43,31,24,80,53,31,29.87,29.49,15,3,20,0.14
2013-10-1,54,45,36,32,28,24,65,53,41,29.96,29.86,9,1,9,0.00
2013-10-2,51,43,36,32,27,23,66,53,40,30.06,29.89,8,0,8,0.00
2013-10-3,43,35,32,34,30,28,90,81,68,30.25,29.90,10,1,10,0.32
2013-10-4,46,38,32,32,28,24,83,70,54,30.35,30.24,5,0,5,0.05
2013-10-5,58,46,34,29,25,17,65,45,22,30.26,30.18,12,1,12,0.00
2013-10-6,64,48,36,39,31,26,67,52,37,30.21,29.97,3,0,5,0.00
2013-10-7,67,51,40,37,30,27,65,48,25,29.97,29.71,12,1,12,0.00
2013-10-8,52,44,36,30,26,23,61,49,34,29.91,29.78,14,2,14,0.00
2013-10-9,51,41,35,34,29,23,75,62,48,29.99,29.80,4,0,4,0.00
2013-10-10,54,42,32,36,29,25,82,62,33,29.82,29.72,10,1,10,0.00
2013-10-11,50,43,37,30,25,20,63,50,33,29.97,29.82,12,1,12,0.00
2013-10-12,48,38,29,28,24,19,68,56,41,30.04,29.96,3,0,3,0.00
2013-10-13,48,41,35,34,30,26,76,64,54,30.12,30.03,7,0,7,0.00
2013-10-14,44,39,34,33,29,25,80,67,51,30.29,30.12,6,0,6,0.06
2013-10-15,50,37,26,32,25,21,85,64,34,30.29,30.04,8,0,8,0.00
2013-10-16,42,37,30,33,27,20,80,68,54,30.11,30.00,2,0,2,0.04
2013-10-17,44,38,32,34,31,27,83,76,65,30.18,30.06,8,0,8,0.07
2013-10-18,52,42,28,32,27,22,82,58,38,30.17,29.99,14,1,14,0.00
2013-10-19,57,50,42,29,26,24,51,40,31,30.01,29.88,14,2,14,0.00
2013-10-20,54,47,41,34,31,27,65,55,42,30.05,29.97,6,0,6,0.00
2013-10-21,58,50,41,36,34,30,69,54,43,30.10,30.03,12,1,12,0.00
2013-10-22,61,48,36,38,32,27,79,58,29,30.12,30.03,8,0,8,0.00
2013-10-23,54,44,35,35,30,25,70,57,47,30.14,30.07,3,0,3,0.00
2013-10-24,52,42,33,37,32,27,82,69,55,30.14,30.03,4,0,4,0.00
2013-10-25,54,43,33,37,30,26,81,63,41,30.18,30.06,2,0,2,0.00
2013-10-26,60,43,32,34,26,23,74,53,27,30.19,29.99,6,0,6,0.00
2013-10-27,53,39,27,30,24,19,81,56,38,30.08,29.79,0,0,0,0.00
2013-10-28,26,20,18,20,14,11,84,76,66,30.12,30.01,0,0,0,0.00
2013-10-29,29,22,16,21,16,10,79,76,69,30.01,29.81,0,0,0,0.00
2013-10-30,43,32,22,27,22,17,84,67,49,29.86,29.79,0,0,0,0.07
2013-10-31,43,40,37,31,27,23,67,60,52,29.96,29.79,0,0,0,0.11
2013-11-1,50,42,36,30,28,25,71,59,41,30.09,29.96,0,0,0,0.00
2013-11-2,54,39,32,34,28,24,77,65,41,30.03,29.56,0,0,0,0.04
2013-11-3,38,33,27,28,20,16,75,60,46,29.86,29.65,0,0,0,0.00
2013-11-4,32,26,22,24,20,15,81,75,67,29.98,29.85,0,0,0,0.00
2013-11-5,37,30,22,20,15,10,70,55,36,30.02,29.95,0,0,0,0.01
2013-11-6,42,37,33,28,24,20,78,59,43,30.19,29.97,0,0,0,0.03
2013-11-7,50,40,33,36,28,22,79,62,54,30.18,29.62,0,0,0,0.05
2013-11-8,44,39,36,30,25,21,68,58,51,30.02,29.72,0,0,0,0.01
2013-11-9,43,36,30,24,22,19,64,57,46,30.09,30.02,0,0,0,0.00
2013-11-10,47,37,31,31,26,23,73,64,53,30.11,30.00,0,0,0,0.00
2013-11-11,40,33,29,31,27,24,83,78,71,30.29,30.10,0,0,0,0.00
2013-11-12,47,36,28,37,30,24,88,80,66,30.29,30.14,0,0,0,0.01
2013-11-15,37,36,35,21,19,18,52,49,47,29.40,29.35,0,0,0,0.00
2013-11-16,39,34,30,27,21,15,71,59,49,29.53,29.24,0,0,0,0.00
2013-11-17,38,33,28,20,16,12,57,50,42,29.85,29.53,0,0,0,0.00
2013-11-18,46,38,31,22,17,14,53,44,33,29.87,29.69,0,0,0,0.00
2013-11-19,53,46,34,31,26,17,63,46,37,29.69,29.55,0,0,0,0.00
2013-11-20,34,12,4,22,3,-5,76,67,62,30.18,29.63,0,0,0,0.00
2013-11-21,14,7,0,6,0,-7,75,72,67,30.36,30.17,0,0,0,0.00
2013-11-22,21,16,8,12,8,2,77,71,66,30.44,30.37,0,0,0,0.00
2013-11-23,23,17,11,14,10,4,76,71,68,30.42,30.12,0,0,0,0.00
2013-11-24,31,24,17,21,16,10,77,70,63,30.14,30.03,2,0,2,0.00
2013-11-25,34,29,23,24,20,15,74,68,62,30.24,30.13,1,0,1,0.00
2013-11-26,35,30,23,26,22,17,80,73,68,30.24,30.02,1,0,1,0.00
2013-11-27,40,34,30,29,25,21,71,68,63,30.04,29.98,2,0,2,0.01
2013-11-28,33,28,22,25,21,16,79,74,65,30.03,29.95,2,0,2,0.00
2013-11-29,41,32,24,28,23,18,79,69,54,30.05,29.97,2,0,2,0.02
2013-11-30,46,42,39,31,30,27,68,62,56,30.07,30.02,11,1,11,0.04
2013-12-1,46,42,38,34,30,26,72,61,54,30.02,29.60,20,3,20,0.01
2013-12-2,39,28,8,33,21,0,84,75,65,29.87,29.49,9,2,12,0.13
2013-12-3,8,4,0,0,-4,-8,73,70,65,30.06,29.86,12,4,12,0.00
2013-12-4,5,0,-7,-4,-8,-15,72,68,60,30.08,30.03,10,2,10,0.00
2013-12-5,0,-5,-10,-7,-13,-17,72,70,64,30.13,29.99,8,1,8,0.00
2013-12-6,-6,-11,-16,-14,-20,-24,68,65,59,30.19,30.13,7,2,7,0.00
2013-12-7,-8,-13,-18,-18,-22,-26,68,65,62,30.13,29.90,2,0,3,0.00
2013-12-8,3,-6,-14,-4,-13,-22,73,70,67,30.06,29.90,5,1,5,0.00
2013-12-9,21,13,-2,12,2,-10,70,63,56,30.05,29.97,17,5,17,0.00
2013-12-10,26,23,19,16,13,11,72,66,60,30.13,29.90,15,4,15,0.00
2013-12-11,30,27,24,17,16,13,67,61,57,30.16,30.11,8,2,8,0.00
2013-12-12,33,28,25,21,18,15,70,65,59,30.15,29.90,4,1,4,0.00
2013-12-13,38,34,30,26,24,20,71,65,59,30.13,29.89,20,6,20,0.02
2013-12-14,43,39,35,28,25,23,67,57,52,30.16,30.02,20,5,20,0.05
2013-12-15,49,42,36,26,23,19,53,47,37,30.08,29.93,19,4,19,0.00
2013-12-16,47,42,37,25,21,18,50,44,37,30.18,29.99,18,3,18,0.00
2013-12-17,47,38,30,24,20,16,57,47,35,30.17,29.79,7,2,7,0.00
2013-12-18,46,39,13,22,18,5,78,45,30,29.85,29.67,12,3,12,0.00
2013-12-19,13,6,4,5,-2,-5,74,68,63,30.03,29.85,10,2,10,0.00
2013-12-20,22,12,4,12,4,-4,76,70,63,29.87,29.49,5,1,5,0.00
2013-12-21,31,26,18,21,17,12,80,69,59,29.85,29.50,16,4,16,0.00
2013-12-22,31,21,14,22,13,8,78,72,67,30.08,29.82,8,1,9,0.00
2013-12-23,38,27,15,31,20,9,85,76,56,30.07,29.77,30,2,30,0.02
2013-12-24,35,32,29,21,17,15,63,54,46,30.25,29.87,34,8,34,0.00
2013-12-25,39,29,23,16,14,10,60,53,32,30.27,30.10,13,2,13,0.00
2013-12-26,48,42,38,28,25,15,54,50,39,30.16,30.06,10,2,10,0.05
2013-12-27,44,39,34,27,23,19,60,54,40,30.10,29.83,10,2,10,0.00
2013-12-28,43,22,14,23,11,5,70,62,42,30.22,29.83,14,2,14,0.00
2013-12-29,35,28,16,23,16,9,78,62,47,30.18,29.89,26,5,26,0.00
2013-12-30,42,37,34,30,24,22,70,59,49,30.06,29.85,18,3,18,0.01
2013-12-31,44,40,36,33,28,23,71,64,57,30.00,29.83,19,5,19,0.01
2014-1-1,36,34,31,23,19,16,59,54,47,30.19,30.00,16,5,16,0.00
2014-1-2,42,34,27,28,19,15,63,54,46,30.13,29.68,6,1,6,0.00